Pittston, PA

12:58 AM EST on December 09, 2016 (GMT -0500)
Wilkes-Barre-Scranton International

Weather History for KAVP - October, 2011

Change the Weather History Date:

Monday, October 31, 2011

  Actual Average Record
Temperature  
Mean Temperature 39 °F 46 °F  
Max Temperature 48 °F 56 °F 75 °F (1950)
Min Temperature 29 °F 37 °F 22 °F (1988)
Degree Days  
Heating Degree Days 26 19  
Month to date heating degree days 399 440  
Since 1 July heating degree days 485 603  
Cooling Degree Days 0 0  
Month to date cooling degree days 0 4  
Year to date cooling degree days 772 580  
Moisture  
Dew Point 28 °F    
Average Humidity 67    
Maximum Humidity 92    
Minimum Humidity 42    
Precipitation  
Precipitation 0.00 in 0.10 in 1.16 in (1935)
Month to date precipitation 3.86 3.34  
Year to date precipitation 54.02 32.44  
Sea Level Pressure  
Sea Level Pressure 30.32 in    
Wind  
Wind Speed 4 mph (ESE)    
Max Wind Speed 12 mph    
Max Gust Speed 17 mph    
Visibility 10 miles    
Events      
T = Trace of Precipitation, MM = Missing Value Source: NWS Daily Summary

Daily Weather History Graph

Daily Weather History Graph

Search for Another Location

Airport or City:

Trip Planner

Search our weather history database for the weather conditions in past years. The results will help you decide how hot, cold, wet, or windy it might be!

Date:

Astronomy

Oct. 31, 2011 Rise Set
Actual Time 7:32 AM EDT 5:59 PM EDT
Civil Twilight 7:04 AM EDT 6:28 PM EDT
Nautical Twilight 6:31 AM EDT 7:00 PM EDT
Astronomical Twilight 5:59 AM EDT 7:32 PM EDT
Moon 12:39 PM EDT (10/31) 10:31 PM EDT (10/31)
Length of Visible Light 11h 24m
Length of Day
10h 26m
Waxing Crescent, 29% of the Moon is Illuminated
Oct 31
Waxing Crescent
Nov 2
First Quarter
Nov 10
Full
Nov 18
Last Quarter
Nov 25
New

Hourly Weather History & Observations

Time (EDT) Temp. Windchill Dew Point Humidity Pressure Visibility Wind Dir Wind Speed Gust Speed Precip Events Conditions
12:54 AM 30.9 °F 25.2 °F 28.9 °F 92% 30.33 in 10.0 mi East 5.8 mph - N/A   Clear
1:54 AM 30.9 °F 25.2 °F 28.0 °F 89% 30.34 in 10.0 mi ESE 5.8 mph - N/A   Clear
2:54 AM 30.9 °F 27.5 °F 28.0 °F 89% 30.35 in 10.0 mi ESE 3.5 mph - N/A   Clear
3:54 AM 30.0 °F 26.5 °F 28.0 °F 92% 30.34 in 10.0 mi ESE 3.5 mph - N/A   Clear
4:54 AM 30.0 °F 24.1 °F 27.0 °F 88% 30.33 in 10.0 mi ESE 5.8 mph - N/A   Clear
5:54 AM 28.9 °F 22.8 °F 27.0 °F 92% 30.35 in 10.0 mi ESE 5.8 mph - N/A   Clear
6:54 AM 28.9 °F 22.8 °F 27.0 °F 92% 30.34 in 10.0 mi East 5.8 mph - N/A   Clear
7:54 AM 30.0 °F 23.2 °F 26.1 °F 85% 30.34 in 10.0 mi East 6.9 mph - N/A   Clear
8:54 AM 32.0 °F - 28.0 °F 85% 30.35 in 10.0 mi Calm Calm - N/A   Clear
9:54 AM 36.0 °F - 30.0 °F 79% 30.35 in 10.0 mi Calm Calm - N/A   Clear
10:54 AM 39.0 °F - 32.0 °F 76% 30.34 in 10.0 mi Calm Calm - N/A   Clear
11:54 AM 45.0 °F 43.5 °F 30.0 °F 56% 30.33 in 10.0 mi Variable 3.5 mph - N/A   Clear
12:54 PM 46.9 °F - 27.0 °F 46% 30.30 in 10.0 mi Variable 5.8 mph 17.3 mph N/A   Clear
1:54 PM 46.0 °F 43.1 °F 26.1 °F 46% 30.29 in 10.0 mi South 5.8 mph - N/A   Clear
2:54 PM 46.9 °F - 27.0 °F 46% 30.28 in 10.0 mi SW 9.2 mph - N/A   Clear
3:54 PM 46.9 °F - 26.1 °F 44% 30.28 in 10.0 mi SSE 4.6 mph - N/A   Clear
4:54 PM 46.0 °F 43.9 °F 24.1 °F 42% 30.28 in 10.0 mi SSW 4.6 mph - N/A   Clear
5:54 PM 44.1 °F - 26.1 °F 49% 30.30 in 10.0 mi Calm Calm - N/A   Clear
6:54 PM 42.1 °F 40.2 °F 28.9 °F 60% 30.30 in 10.0 mi NNE 3.5 mph - N/A   Clear
7:54 PM 39.0 °F 35.7 °F 28.9 °F 67% 30.30 in 10.0 mi NNE 4.6 mph - N/A   Clear
8:54 PM 39.0 °F - 28.9 °F 67% 30.30 in 10.0 mi Calm Calm - N/A   Clear
9:54 PM 39.9 °F 37.8 °F 27.0 °F 60% 30.30 in 10.0 mi East 3.5 mph - N/A   Clear
10:54 PM 39.0 °F 34.0 °F 28.0 °F 65% 30.31 in 10.0 mi ENE 6.9 mph - N/A   Partly Cloudy
11:54 PM 37.0 °F - 30.0 °F 76% 30.30 in 10.0 mi Calm Calm - N/A   Clear